Location: Saint-Denis
(20.8800°S, 55.4481°E)
Time: 07:11:25
(UTC+04:00)

Tiangong - Visible Passes

Search period start: 03 February 2023 00:00
Search period end: 13 February 2023 00:00
Orbit: 383 x 386 km, 41.5° (Epoch: 02 February)

Date Brightness Start Highest point End Pass type
(mag) Time Alt. Az. Time Alt. Az. Time Alt. Az.
04 Feb 0.5 05:13:29 10° SSW 05:16:03 22° SSE 05:18:37 10° E visible
05 Feb 1.1 04:14:54 10° S 04:16:11 12° SSE 04:17:29 10° SE visible
05 Feb 0.4 20:41:05 10° NW 20:41:46 15° NW 20:41:46 15° NW visible
06 Feb -1.1 04:50:26 10° SW 04:53:32 48° SE 04:56:38 10° ENE visible
06 Feb -1.3 19:41:46 10° NNW 19:44:35 30° NE 19:46:48 14° E visible
06 Feb 1.4 21:19:04 10° W 21:19:08 10° W 21:19:08 10° W visible
07 Feb 1.0 03:55:19 16° ESE 03:55:19 16° ESE 03:56:19 10° E visible
07 Feb -0.9 05:27:50 10° W 05:30:30 24° NW 05:33:10 10° NNE visible
07 Feb -0.7 20:18:35 10° WNW 20:21:34 38° SW 20:23:49 16° SSE visible
08 Feb -0.2 04:32:45 21° NE 04:32:45 21° NE 04:33:58 10° NE visible
08 Feb -2.2 19:18:39 10° NW 19:21:48 83° NE 19:25:00 10° SE visible
08 Feb 1.3 20:58:28 10° SW 20:58:54 10° SSW 20:59:19 10° SSW visible
09 Feb 0.7 19:56:35 10° W 19:58:54 18° SSW 20:01:15 10° SSE visible
11 Feb 1.4 19:36:01 10° SSW 19:36:15 10° SSW 19:36:28 10° SSW visible
